CZ-4C DEB, 44614

Orbit data source: Space-Track

CZ-4C DEB, 44614 is space debris in SSO originally from a launch on Tue, 14 Nov 2017 UTC launched from the Taiyaun Space Center, China (TSC). Debris objects in space refer to the collection of defunct objects orbiting the Earth. Examples of debris include non-operational satellites, rocket bodies, and fragments generated from explosions, collisions, or faulty payload assembly.

Loading next visibility...
Identifier
44614, 2017-072E
Orbit
SSO
Country
Flag of CNCN / PRC
Related business
Manufacturer
Unknown
Mission
Spacecraft
Bus & Motor
Unknown
Mass
Unknown
Launch date (UTC)
2017-11-14 (8 years ago)
Launch vehicle
Unknown
Launch site
Taiyaun Space Center, China (TSC)
Object type
Payload
Rocket body
Debris
Shape & HBR
Unknown shape, 0.1 m
Radar Cross Section
Small (<0.1 m²)

Expand to show TLE details & history
Last TLE update: 23 hours ago

TLE from 23 hours ago
0 CZ-4C DEB
1 44614U 17072E   26125.53047271  .00000479  00000-0  40179-3 0  9995
2 44614  98.7288 218.4150 0229403 145.5203 216.1079 13.80882426425553
Epoch: 2026-05-05T12:43Z
TLE epoch observation values (Epoch: 2026-05-05T12:43:52.842Z)
Latitude
0.00006°
Longitude
164.04082°
Altitude
1,100.97 km
Speed
7.233 km/s
True Right ascension
14h 33m 39s
True Declination
0° 00' 00"
Sunlit
Object was in full shadow at epoch
Visualization orbit readout
Latitude
Unknown
Longitude
Unknown
Altitude
Unknown
Speed
Unknown
Apparent Right ascension
Unknown
Apparent Declination
Unknown
Sunlit
N/A
Visualization observer readout
Local Sidereal Time
19:55:28
Azimuth
Unknown
Elevation
Unknown
Doppler factor
Unknown
Orbital elements
Apogee altitude
1,126.261 km
Perigee altitude
789.676 km
Semi-major axis
7,336.105 km
Eccentricity
0.02294
Inclination
98.7288°
RAAN
218.415°
Arg. of periapsis
145.5203°
True anomaly
214.59403°
Mean anomaly
216.1079°
Eccentric anomaly
215.34749°
Mean motion
3.45418 °/min
Orbital period
104.22 mins
BSTAR
0.00040179
Loading maneuver chart data...
Computing Atmospheric mass density...
Loading historical data...
Loading historical data...
Loading historical data...
Loading historical data...
Loading historical data...
Loading historical data...
Loading historical data...
Other satellites on launch #72 in the year 2017 (2017-11-14 UTC)

Documentation

Showing up to 5 results
|